This is the latest recevied weather packets stored in our database for station/object KB0BS-13. If no packets are shown the sender has not sent any weather packets the latest 10 day(s).
| Time | Temp. | Humidity | Pressure | Rain* | Wind** | Luminosity | Snow |
|---|---|---|---|---|---|---|---|
| 1777840360 | 12.78° C | 61% | 1003.8 hPa | 0 mm | - | 509 W/m² | - |
| 1777840057 | 12.78° C | 61% | 1004.1 hPa | 0 mm | - | 378 W/m² | - |
| 1777839754 | 12.78° C | 62% | 1004 hPa | 0 mm | - | 259 W/m² | - |
| 1777839452 | 13.33° C | 61% | 1003.9 hPa | 0 mm | - | 191 W/m² | - |
| 1777839149 | 13.33° C | 63% | 1004.1 hPa | 0 mm | - | 506 W/m² | - |
| 1777838846 | 12.78° C | 61% | 1004.3 hPa | 0 mm | - | 515 W/m² | - |
| 1777838542 | 12.78° C | 66% | 1004.3 hPa | 0 mm | - | 525 W/m² | - |
| 1777838239 | 12.78° C | 65% | 1004.1 hPa | 0 mm | - | 523 W/m² | - |
| 1777837936 | 11.67° C | 69% | 1004.4 hPa | 0 mm | - | 567 W/m² | - |
| 1777837633 | 11.67° C | 70% | 1004.5 hPa | 0 mm | - | 687 W/m² | - |
| 1777837329 | 10.56° C | 70% | 1004.7 hPa | 0 mm | - | 657 W/m² | - |
| 1777837025 | 10° C | 73% | 1004.6 hPa | 0 mm | - | 672 W/m² | - |
| 1777836722 | 10.56° C | 74% | 1004.8 hPa | 0 mm | - | 147 W/m² | - |
| 1777836417 | 10.56° C | 75% | 1004.9 hPa | 0 mm | - | 204 W/m² | - |
| 1777836112 | 11.11° C | 74% | 1005 hPa | 0 mm | - | 332 W/m² | - |
| 1777835809 | 10° C | 78% | 1005 hPa | 0 mm | - | 271 W/m² | - |
| 1777835507 | 10° C | 80% | 1005.2 hPa | 0 mm | - | 330 W/m² | - |
| 1777835203 | 9.44° C | 80% | 1005.3 hPa | 0 mm | - | 296 W/m² | - |
| 1777834900 | 9.44° C | 79% | 1005.4 hPa | 0 mm | - | 335 W/m² | - |
| 1777834597 | 10° C | 78% | 1005.5 hPa | 0 mm | - | 282 W/m² | - |
| 1777834292 | 10° C | 78% | 1005.4 hPa | 0 mm | - | 489 W/m² | - |
| 1777833987 | 9.44° C | 78% | 1005.7 hPa | 0 mm | - | 309 W/m² | - |
| 1777833684 | 9.44° C | 79% | 1005.6 hPa | 0 mm | - | 302 W/m² | - |
| 1777833381 | 9.44° C | 78% | 1005.7 hPa | 0 mm | - | 267 W/m² | - |
| 1777833078 | 9.44° C | 79% | 1005.6 hPa | 0 mm | - | 277 W/m² | - |
* Rain latest hour (hover to see other rain measurements)
** Current wind speed in m/s (hover to see current wind gust speed)